CSC8695 ZUUU-ZULS

Flight info

Callsign CSC8695
Flight time 1h 59m
Altitude 34100
Route MUMGO9W MUMGO B213 LXA
Aircraft A320/M-SDE1E2FGHIRWY/LB1

Departure

Time 2026-04-21 07:20
Airport Chengdu Shuangliu International Airport (ZUUU)

Arrival

Time 2026-04-21 09:19
Airport Lhasa Gonggar International Airport (ZULS)
Time Latitude Longitude Altitude Speed Heading
2026-04-21 06:38 30.58116 103.95541 1647 ft 0 kts 24°
2026-04-21 07:05 30.58115 103.95541 1647 ft 2 kts 24°
2026-04-21 07:05 30.58095 103.95528 1647 ft 4 kts 64°
2026-04-21 07:05 30.58095 103.95511 1647 ft 4 kts 101°
2026-04-21 07:06 30.58093 103.95487 1647 ft 4 kts 31°
2026-04-21 07:06 30.58073 103.95484 1647 ft 4 kts 317°
2026-04-21 07:06 30.58060 103.95509 1647 ft 4 kts 290°
2026-04-21 07:06 30.58059 103.95515 1647 ft 0 kts 291°
2026-04-21 07:09 30.58059 103.95514 1647 ft 0 kts 291°
2026-04-21 07:09 30.58061 103.95506 1647 ft 2 kts 291°
2026-04-21 07:09 30.58067 103.95488 1647 ft 3 kts 291°
2026-04-21 07:09 30.58086 103.95433 1647 ft 10 kts 291°
2026-04-21 07:10 30.58113 103.95355 1647 ft 11 kts 293°
2026-04-21 07:10 30.58136 103.95280 1647 ft 7 kts 290°
2026-04-21 07:10 30.58129 103.95230 1647 ft 7 kts 223°
2026-04-21 07:10 30.58081 103.95209 1647 ft 8 kts 202°
2026-04-21 07:11 30.58026 103.95183 1647 ft 9 kts 202°
2026-04-21 07:11 30.57964 103.95153 1647 ft 10 kts 202°
2026-04-21 07:11 30.57895 103.95121 1647 ft 11 kts 202°
2026-04-21 07:11 30.57820 103.95084 1647 ft 12 kts 203°
2026-04-21 07:12 30.57738 103.95046 1647 ft 13 kts 200°
2026-04-21 07:12 30.57649 103.95006 1647 ft 14 kts 201°
2026-04-21 07:12 30.57558 103.94962 1647 ft 13 kts 202°
2026-04-21 07:12 30.57494 103.94932 1647 ft 10 kts 202°
2026-04-21 07:13 30.57426 103.94900 1647 ft 11 kts 202°
2026-04-21 07:13 30.57352 103.94865 1647 ft 12 kts 201°
2026-04-21 07:13 30.57270 103.94827 1647 ft 13 kts 201°
2026-04-21 07:13 30.57181 103.94786 1647 ft 14 kts 201°
2026-04-21 07:14 30.57086 103.94742 1647 ft 15 kts 202°
2026-04-21 07:14 30.56983 103.94695 1647 ft 16 kts 194°
2026-04-21 07:14 30.56870 103.94666 1647 ft 17 kts 193°
2026-04-21 07:14 30.56755 103.94615 1647 ft 18 kts 203°
2026-04-21 07:15 30.56634 103.94557 1647 ft 19 kts 202°
2026-04-21 07:15 30.56506 103.94496 1647 ft 20 kts 201°
2026-04-21 07:15 30.56370 103.94433 1647 ft 22 kts 201°
2026-04-21 07:15 30.56266 103.94385 1647 ft 9 kts 201°
2026-04-21 07:16 30.56237 103.94335 1647 ft 9 kts 281°
2026-04-21 07:16 30.56263 103.94267 1647 ft 10 kts 294°
2026-04-21 07:16 30.56290 103.94190 1647 ft 11 kts 291°
2026-04-21 07:16 30.56317 103.94109 1647 ft 10 kts 291°
2026-04-21 07:17 30.56346 103.94031 1647 ft 9 kts 299°
2026-04-21 07:17 30.56399 103.94028 1647 ft 7 kts 22°
2026-04-21 07:17 30.56404 103.94030 1647 ft 0 kts 22°
2026-04-21 07:19 30.56407 103.94032 1648 ft 3 kts 22°
2026-04-21 07:19 30.56567 103.94107 1649 ft 56 kts 22°
2026-04-21 07:19 30.57106 103.94357 1646 ft 110 kts 22°
2026-04-21 07:19 30.57964 103.94757 1648 ft 153 kts 22°
2026-04-21 07:20 30.59034 103.95246 1926 ft 167 kts 21°
2026-04-21 07:20 30.60123 103.95733 2433 ft 169 kts 22°
2026-04-21 07:20 30.61220 103.96242 2934 ft 177 kts 23°
2026-04-21 07:20 30.62430 103.96816 3163 ft 199 kts 24°
2026-04-21 07:21 30.63773 103.97452 3435 ft 218 kts 23°
2026-04-21 07:21 30.65261 103.98152 3679 ft 243 kts 23°
2026-04-21 07:21 30.66877 103.98910 4222 ft 256 kts 24°
2026-04-21 07:21 30.68455 103.99858 5024 ft 258 kts 42°
2026-04-21 07:22 30.69603 104.01462 5866 ft 260 kts 56°
2026-04-21 07:22 30.70528 104.03278 6703 ft 262 kts 59°
2026-04-21 07:22 30.71390 104.05176 7420 ft 268 kts 61°
2026-04-21 07:22 30.72262 104.07118 8126 ft 273 kts 60°
2026-04-21 07:23 30.73168 104.09085 8785 ft 280 kts 60°
2026-04-21 07:23 30.74125 104.11093 9421 ft 287 kts 60°
2026-04-21 07:23 30.75122 104.13130 10044 ft 293 kts 59°
2026-04-21 07:23 30.75924 104.15330 10610 ft 300 kts 79°
2026-04-21 07:24 30.75850 104.17746 11197 ft 304 kts 107°
2026-04-21 07:24 30.74857 104.19900 11801 ft 306 kts 134°
2026-04-21 07:24 30.73151 104.21346 12393 ft 306 kts 161°
2026-04-21 07:24 30.71066 104.21784 12847 ft 307 kts 187°
2026-04-21 07:25 30.69037 104.21106 13384 ft 306 kts 212°
2026-04-21 07:25 30.67458 104.19483 13886 ft 305 kts 235°
2026-04-21 07:25 30.66219 104.17474 14386 ft 308 kts 236°
2026-04-21 07:25 30.64996 104.15451 14857 ft 311 kts 236°
2026-04-21 07:26 30.63756 104.13391 15381 ft 313 kts 236°
2026-04-21 07:26 30.62483 104.11283 15896 ft 316 kts 236°
2026-04-21 07:26 30.61213 104.09189 16416 ft 318 kts 236°
2026-04-21 07:26 30.59950 104.07111 16936 ft 320 kts 236°
2026-04-21 07:27 30.58661 104.04997 17461 ft 322 kts 236°
2026-04-21 07:27 30.57362 104.02867 17972 ft 324 kts 236°
2026-04-21 07:27 30.56052 104.00723 18443 ft 327 kts 236°
2026-04-21 07:27 30.54735 103.98569 18905 ft 328 kts 236°
2026-04-21 07:28 30.53410 103.96404 19380 ft 329 kts 236°
2026-04-21 07:28 30.52217 103.94142 19850 ft 329 kts 249°
2026-04-21 07:28 30.51672 103.91576 20332 ft 330 kts 266°
2026-04-21 07:28 30.51872 103.88914 20616 ft 339 kts 284°
2026-04-21 07:29 30.52883 103.86392 20751 ft 355 kts 303°
2026-04-21 07:29 30.54401 103.84068 20875 ft 367 kts 305°
2026-04-21 07:29 30.55982 103.81678 21000 ft 380 kts 305°
2026-04-21 07:29 30.57613 103.79208 21125 ft 392 kts 305°
2026-04-21 07:30 30.59285 103.76660 21251 ft 403 kts 305°
2026-04-21 07:30 30.60440 103.74893 21336 ft 410 kts 305°
2026-04-21 07:30 30.62755 103.71339 21527 ft 421 kts 303°
2026-04-21 07:30 30.63805 103.69451 21701 ft 422 kts 297°
2026-04-21 07:31 30.65029 103.66345 22025 ft 423 kts 287°
2026-04-21 07:31 30.65865 103.63072 22367 ft 424 kts 284°
2026-04-21 07:31 30.66664 103.59768 22718 ft 426 kts 284°
2026-04-21 07:31 30.67480 103.56401 23065 ft 428 kts 284°
2026-04-21 07:32 30.68278 103.53116 23412 ft 429 kts 284°
2026-04-21 07:32 30.69087 103.49772 23703 ft 431 kts 284°
2026-04-21 07:32 30.69899 103.46416 24000 ft 432 kts 283°
2026-04-21 07:32 30.70711 103.43052 24302 ft 433 kts 283°
2026-04-21 07:33 30.71525 103.39684 24615 ft 433 kts 283°
2026-04-21 07:33 30.72336 103.36318 25006 ft 431 kts 284°
2026-04-21 07:33 30.73140 103.32974 25486 ft 428 kts 283°
2026-04-21 07:33 30.73937 103.29660 25983 ft 424 kts 284°
2026-04-21 07:34 30.74727 103.26375 26517 ft 420 kts 284°
2026-04-21 07:34 30.75511 103.23107 27028 ft 417 kts 284°
2026-04-21 07:34 30.76284 103.19878 27561 ft 413 kts 284°
2026-04-21 07:34 30.77050 103.16675 28090 ft 409 kts 284°
2026-04-21 07:35 30.77809 103.13499 28615 ft 406 kts 284°
2026-04-21 07:35 30.78561 103.10344 29110 ft 403 kts 284°
2026-04-21 07:35 30.79302 103.07223 29667 ft 399 kts 284°
2026-04-21 07:35 30.80035 103.04122 30142 ft 395 kts 283°
2026-04-21 07:36 30.80507 103.00997 30608 ft 391 kts 274°
2026-04-21 07:36 30.80551 102.97854 31106 ft 387 kts 269°
2026-04-21 07:36 30.80489 102.94746 31644 ft 382 kts 269°
2026-04-21 07:36 30.80434 102.91682 32172 ft 377 kts 269°
2026-04-21 07:37 30.80381 102.88652 32655 ft 373 kts 269°
2026-04-21 07:37 30.80331 102.85671 33189 ft 367 kts 268°
2026-04-21 07:37 30.80281 102.82711 33736 ft 363 kts 268°
2026-04-21 07:37 30.80229 102.79786 33889 ft 360 kts 268°
2026-04-21 07:38 30.80123 102.73865 33881 ft 373 kts 267°
2026-04-21 07:38 30.80009 102.67757 33884 ft 380 kts 267°
2026-04-21 07:39 30.79887 102.61618 33837 ft 383 kts 267°
2026-04-21 07:39 30.79762 102.55425 33864 ft 384 kts 268°
2026-04-21 07:40 30.79635 102.49229 33866 ft 384 kts 268°
2026-04-21 07:40 30.79504 102.43005 33808 ft 384 kts 267°
2026-04-21 07:41 30.79373 102.36792 33831 ft 384 kts 267°
2026-04-21 07:41 30.79238 102.30597 33774 ft 383 kts 267°
2026-04-21 07:42 30.79098 102.24408 33775 ft 383 kts 267°
2026-04-21 07:42 30.78956 102.18217 33740 ft 382 kts 267°
2026-04-21 07:43 30.78815 102.12058 33731 ft 382 kts 267°
2026-04-21 07:43 30.78669 102.05913 33709 ft 380 kts 267°
2026-04-21 07:44 30.78517 101.99761 33713 ft 381 kts 266°
2026-04-21 07:44 30.78364 101.93589 33711 ft 382 kts 267°
2026-04-21 07:45 30.78519 101.87429 33709 ft 383 kts 273°
2026-04-21 07:45 30.79035 101.81304 33720 ft 385 kts 273°
2026-04-21 07:46 30.79553 101.75116 33723 ft 383 kts 272°
2026-04-21 07:46 30.80066 101.68969 33759 ft 381 kts 273°
2026-04-21 07:47 30.80565 101.62819 33718 ft 382 kts 271°
2026-04-21 07:47 30.81064 101.56662 33734 ft 383 kts 272°
2026-04-21 07:48 30.81574 101.50474 33735 ft 384 kts 272°
2026-04-21 07:48 30.82078 101.44297 33741 ft 383 kts 272°
2026-04-21 07:49 30.82572 101.38121 33744 ft 383 kts 272°
2026-04-21 07:49 30.83060 101.31949 33753 ft 384 kts 272°
2026-04-21 07:50 30.83554 101.25761 33749 ft 385 kts 272°
2026-04-21 07:50 30.84044 101.19557 33737 ft 386 kts 272°
2026-04-21 07:51 30.84528 101.13322 33737 ft 387 kts 272°
2026-04-21 07:51 30.85010 101.07066 33737 ft 389 kts 271°
2026-04-21 07:52 30.85493 101.00869 33738 ft 388 kts 272°
2026-04-21 07:52 30.85982 100.94603 33740 ft 389 kts 272°
2026-04-21 07:53 30.86469 100.88293 33743 ft 388 kts 272°
2026-04-21 07:53 30.86939 100.82065 33749 ft 388 kts 272°
2026-04-21 07:54 30.87412 100.75817 33746 ft 388 kts 272°
2026-04-21 07:54 30.87883 100.69567 33747 ft 388 kts 272°
2026-04-21 07:55 30.88351 100.63304 33750 ft 388 kts 272°
2026-04-21 07:55 30.88812 100.57045 33756 ft 388 kts 272°
2026-04-21 07:56 30.89271 100.50782 33751 ft 389 kts 272°
2026-04-21 07:56 30.89734 100.44503 33745 ft 390 kts 271°
2026-04-21 07:57 30.90185 100.38215 33744 ft 390 kts 272°
2026-04-21 07:57 30.90635 100.31924 33746 ft 390 kts 272°
2026-04-21 07:58 30.91089 100.25634 33732 ft 389 kts 272°
2026-04-21 07:58 30.91535 100.19344 33752 ft 391 kts 272°
2026-04-21 07:59 30.91977 100.13033 33751 ft 392 kts 272°
2026-04-21 07:59 30.92419 100.06713 33751 ft 390 kts 272°
2026-04-21 08:00 30.92858 100.00406 33751 ft 391 kts 272°
2026-04-21 08:00 30.93336 99.94104 33778 ft 391 kts 272°
2026-04-21 08:01 30.93855 99.87793 33780 ft 391 kts 272°
2026-04-21 08:02 30.94614 99.78353 33761 ft 395 kts 273°
2026-04-21 08:02 30.95113 99.71953 33752 ft 398 kts 272°
2026-04-21 08:03 30.95617 99.65505 33763 ft 401 kts 272°
2026-04-21 08:03 30.96121 99.59013 33767 ft 403 kts 272°
2026-04-21 08:04 30.96613 99.52493 33767 ft 404 kts 272°
2026-04-21 08:04 30.97106 99.45964 33779 ft 405 kts 272°
2026-04-21 08:05 30.97602 99.39415 33779 ft 406 kts 272°
2026-04-21 08:05 30.98097 99.32861 33770 ft 406 kts 272°
2026-04-21 08:06 30.98586 99.26303 33770 ft 406 kts 272°
2026-04-21 08:06 30.99070 99.19757 33759 ft 406 kts 272°
2026-04-21 08:07 30.99551 99.13193 33762 ft 407 kts 272°
2026-04-21 08:07 31.00032 99.06638 33755 ft 407 kts 272°
2026-04-21 08:08 31.00522 99.00069 33752 ft 405 kts 272°
2026-04-21 08:08 31.00996 98.93518 33749 ft 406 kts 272°
2026-04-21 08:09 31.01457 98.86959 33745 ft 405 kts 272°
2026-04-21 08:09 31.01914 98.80402 33747 ft 406 kts 272°
2026-04-21 08:10 31.02377 98.73853 33749 ft 405 kts 272°
2026-04-21 08:10 31.02839 98.67297 33733 ft 406 kts 272°
2026-04-21 08:11 31.03333 98.60734 33740 ft 408 kts 273°
2026-04-21 08:11 31.03900 98.54136 33733 ft 409 kts 273°
2026-04-21 08:12 31.04472 98.47545 33743 ft 408 kts 273°
2026-04-21 08:12 31.05017 98.40994 33745 ft 409 kts 272°
2026-04-21 08:13 31.05550 98.34384 33769 ft 410 kts 273°
2026-04-21 08:13 31.06086 98.27762 33765 ft 410 kts 272°
2026-04-21 08:14 31.06622 98.21131 33762 ft 411 kts 272°
2026-04-21 08:14 31.07153 98.14491 33783 ft 412 kts 272°
2026-04-21 08:15 31.07690 98.07839 33784 ft 412 kts 272°
2026-04-21 08:15 31.08229 98.01187 33799 ft 412 kts 272°
2026-04-21 08:16 31.08762 97.94528 33796 ft 413 kts 272°
2026-04-21 08:16 31.09293 97.87852 33800 ft 415 kts 272°
2026-04-21 08:17 31.09825 97.81144 33801 ft 416 kts 272°
2026-04-21 08:17 31.10349 97.74413 33795 ft 416 kts 272°
2026-04-21 08:18 31.10874 97.67732 33796 ft 417 kts 272°
2026-04-21 08:18 31.11316 97.62092 33801 ft 417 kts 272°
2026-04-21 08:19 31.11921 97.54259 33798 ft 417 kts 272°
2026-04-21 08:19 31.12436 97.47530 33799 ft 417 kts 272°
2026-04-21 08:20 31.12945 97.40798 33803 ft 416 kts 272°
2026-04-21 08:20 31.13366 97.35156 33807 ft 417 kts 272°
2026-04-21 08:21 31.13953 97.27337 33797 ft 416 kts 272°
2026-04-21 08:21 31.14371 97.21743 33796 ft 416 kts 272°
2026-04-21 08:22 31.14121 97.15063 33786 ft 411 kts 256°
2026-04-21 08:22 31.12727 97.08589 33792 ft 411 kts 255°
2026-04-21 08:23 31.11335 97.02104 33799 ft 412 kts 255°
2026-04-21 08:23 31.09951 96.95614 33830 ft 412 kts 255°
2026-04-21 08:24 31.08554 96.89115 33830 ft 413 kts 255°
2026-04-21 08:24 31.07148 96.82625 33878 ft 413 kts 255°
2026-04-21 08:25 31.05745 96.76143 33875 ft 412 kts 255°
2026-04-21 08:25 31.04342 96.69667 33870 ft 411 kts 255°
2026-04-21 08:26 31.02946 96.63201 33874 ft 410 kts 255°
2026-04-21 08:26 31.01542 96.56751 33893 ft 411 kts 255°
2026-04-21 08:27 31.00134 96.50304 33887 ft 410 kts 255°
2026-04-21 08:27 30.98720 96.43865 33883 ft 410 kts 255°
2026-04-21 08:28 30.97330 96.37472 33871 ft 410 kts 255°
2026-04-21 08:28 30.95972 96.31022 33865 ft 410 kts 256°
2026-04-21 08:29 30.94622 96.24566 33866 ft 409 kts 255°
2026-04-21 08:29 30.93257 96.18112 33850 ft 411 kts 255°
2026-04-21 08:30 30.91879 96.11662 33843 ft 410 kts 255°
2026-04-21 08:30 30.90498 96.05214 33843 ft 410 kts 256°
2026-04-21 08:31 30.89119 95.98765 33839 ft 411 kts 256°
2026-04-21 08:31 30.87730 95.92305 33828 ft 412 kts 256°
2026-04-21 08:32 30.86336 95.85848 33822 ft 411 kts 256°
2026-04-21 08:32 30.84944 95.79396 33827 ft 411 kts 256°
2026-04-21 08:33 30.83551 95.72945 33843 ft 411 kts 255°
2026-04-21 08:33 30.82207 95.66503 33873 ft 409 kts 256°
2026-04-21 08:34 30.80900 95.60080 33880 ft 407 kts 256°
2026-04-21 08:34 30.79587 95.53694 33882 ft 406 kts 256°
2026-04-21 08:35 30.78257 95.47314 33892 ft 406 kts 256°
2026-04-21 08:35 30.76931 95.40943 33885 ft 405 kts 256°
2026-04-21 08:36 30.75608 95.34582 33881 ft 405 kts 256°
2026-04-21 08:36 30.74278 95.28214 33958 ft 406 kts 256°
2026-04-21 08:37 30.72936 95.21838 33946 ft 406 kts 256°
2026-04-21 08:37 30.71594 95.15447 33967 ft 407 kts 256°
2026-04-21 08:38 30.70250 95.09055 33961 ft 407 kts 256°
2026-04-21 08:38 30.68897 95.02661 33977 ft 408 kts 256°
2026-04-21 08:39 30.67541 94.96266 33972 ft 407 kts 256°
2026-04-21 08:39 30.66189 94.89866 33968 ft 409 kts 256°
2026-04-21 08:40 30.64824 94.83443 34014 ft 410 kts 256°
2026-04-21 08:40 30.63449 94.76997 34017 ft 411 kts 256°
2026-04-21 08:41 30.62066 94.70541 34020 ft 412 kts 256°
2026-04-21 08:41 30.60696 94.64139 34019 ft 411 kts 256°
2026-04-21 08:42 30.59309 94.57694 34020 ft 411 kts 256°
2026-04-21 08:42 30.57929 94.51265 34043 ft 410 kts 255°
2026-04-21 08:43 30.56540 94.44860 34040 ft 409 kts 255°
2026-04-21 08:43 30.55146 94.38455 34046 ft 409 kts 255°
2026-04-21 08:44 30.53756 94.32059 34050 ft 409 kts 255°
2026-04-21 08:44 30.52364 94.25668 34044 ft 408 kts 256°
2026-04-21 08:45 30.50974 94.19286 34049 ft 409 kts 255°
2026-04-21 08:45 30.49624 94.12882 34031 ft 410 kts 256°
2026-04-21 08:46 30.48296 94.06445 34028 ft 411 kts 256°
2026-04-21 08:46 30.46964 94.00007 34022 ft 411 kts 256°
2026-04-21 08:47 30.45627 93.93557 34016 ft 411 kts 256°
2026-04-21 08:47 30.44279 93.87106 34029 ft 412 kts 256°
2026-04-21 08:48 30.42931 93.80654 34024 ft 412 kts 255°
2026-04-21 08:48 30.41566 93.74181 33997 ft 415 kts 254°
2026-04-21 08:49 30.40178 93.67666 33994 ft 418 kts 254°
2026-04-21 08:49 30.38787 93.61119 33991 ft 419 kts 254°
2026-04-21 08:50 30.36936 93.54723 33991 ft 419 kts 249°
2026-04-21 08:50 30.34989 93.48403 33962 ft 420 kts 250°
2026-04-21 08:51 30.33006 93.41996 34009 ft 425 kts 251°
2026-04-21 08:51 30.31011 93.35552 34002 ft 425 kts 251°
2026-04-21 08:52 30.29010 93.29110 34009 ft 426 kts 251°
2026-04-21 08:52 30.27004 93.22660 34015 ft 426 kts 251°
2026-04-21 08:53 30.24997 93.16221 34009 ft 426 kts 251°
2026-04-21 08:53 30.22971 93.09776 34025 ft 426 kts 251°
2026-04-21 08:54 30.20949 93.03337 34007 ft 427 kts 250°
2026-04-21 08:54 30.18922 92.96844 33978 ft 431 kts 249°
2026-04-21 08:55 30.16871 92.90297 33976 ft 435 kts 249°
2026-04-21 08:55 30.14808 92.83719 33964 ft 436 kts 249°
2026-04-21 08:56 30.12724 92.77115 33981 ft 438 kts 249°
2026-04-21 08:56 30.10626 92.70500 33960 ft 439 kts 249°
2026-04-21 08:57 30.08526 92.63887 33975 ft 437 kts 250°
2026-04-21 08:57 30.06451 92.57321 33982 ft 434 kts 250°
2026-04-21 08:58 30.04407 92.50780 33990 ft 432 kts 250°
2026-04-21 08:58 30.02394 92.44266 33980 ft 430 kts 250°
2026-04-21 08:59 30.00378 92.37771 33977 ft 430 kts 250°
2026-04-21 08:59 29.98354 92.31289 33974 ft 429 kts 250°
2026-04-21 09:00 29.96329 92.24817 33959 ft 429 kts 250°
2026-04-21 09:00 29.94305 92.18362 33950 ft 428 kts 250°
2026-04-21 09:01 29.92279 92.11911 33918 ft 427 kts 250°
2026-04-21 09:01 29.91266 92.08691 33659 ft 427 kts 250°
2026-04-21 09:01 29.90253 92.05479 33243 ft 427 kts 250°
2026-04-21 09:01 29.89237 92.02260 32461 ft 428 kts 250°
2026-04-21 09:02 29.88216 91.99027 31603 ft 431 kts 250°
2026-04-21 09:02 29.87189 91.95776 30691 ft 434 kts 250°
2026-04-21 09:02 29.86156 91.92507 30074 ft 434 kts 250°
2026-04-21 09:03 29.84074 91.85942 29560 ft 441 kts 250°
2026-04-21 09:03 29.83019 91.82618 29273 ft 443 kts 250°
2026-04-21 09:03 29.81963 91.79281 28998 ft 444 kts 250°
2026-04-21 09:03 29.80912 91.75930 28727 ft 446 kts 250°
2026-04-21 09:04 29.79860 91.72558 28469 ft 449 kts 251°
2026-04-21 09:04 29.78808 91.69177 28214 ft 450 kts 251°
2026-04-21 09:04 29.77752 91.65783 27935 ft 450 kts 251°
2026-04-21 09:04 29.76694 91.62391 27675 ft 451 kts 251°
2026-04-21 09:05 29.75630 91.58986 27422 ft 454 kts 250°
2026-04-21 09:05 29.74561 91.55573 27167 ft 454 kts 251°
2026-04-21 09:05 29.73488 91.52160 26910 ft 453 kts 251°
2026-04-21 09:05 29.72421 91.48775 26655 ft 443 kts 251°
2026-04-21 09:06 29.71394 91.45502 26406 ft 428 kts 251°
2026-04-21 09:06 29.70403 91.42332 26160 ft 416 kts 251°
2026-04-21 09:06 29.69440 91.39242 25916 ft 404 kts 251°
2026-04-21 09:06 29.68514 91.36275 25662 ft 384 kts 251°
2026-04-21 09:07 29.67631 91.33451 25420 ft 365 kts 251°
2026-04-21 09:07 29.66823 91.30755 25178 ft 348 kts 254°
2026-04-21 09:07 29.66393 91.29004 25029 ft 342 kts 257°
2026-04-21 09:07 29.65893 91.26346 24802 ft 339 kts 261°
2026-04-21 09:08 29.65567 91.23679 24561 ft 334 kts 264°
2026-04-21 09:08 29.65402 91.21038 24338 ft 328 kts 268°
2026-04-21 09:08 29.65383 91.18435 24028 ft 325 kts 271°
2026-04-21 09:08 29.65513 91.15837 23741 ft 322 kts 273°
2026-04-21 09:09 29.65474 91.13291 23492 ft 317 kts 264°
2026-04-21 09:09 29.64901 91.10023 22687 ft 314 kts 253°
2026-04-21 09:09 29.64397 91.08428 22254 ft 314 kts 248°
2026-04-21 09:09 29.63418 91.06198 21636 ft 313 kts 240°
2026-04-21 09:10 29.62173 91.04152 21027 ft 312 kts 232°
2026-04-21 09:10 29.60682 91.02340 20420 ft 313 kts 224°
2026-04-21 09:10 29.58968 91.00808 19862 ft 313 kts 216°
2026-04-21 09:10 29.57098 90.99591 19353 ft 314 kts 207°
2026-04-21 09:11 29.55103 90.98573 18842 ft 314 kts 206°
2026-04-21 09:11 29.53074 90.97547 18500 ft 310 kts 207°
2026-04-21 09:11 29.51147 90.96578 18255 ft 298 kts 207°
2026-04-21 09:11 29.49256 90.95627 17724 ft 295 kts 207°
2026-04-21 09:12 29.47417 90.94702 17488 ft 281 kts 207°
2026-04-21 09:12 29.45680 90.93833 17366 ft 264 kts 207°
2026-04-21 09:12 29.44070 90.93027 17259 ft 248 kts 208°
2026-04-21 09:12 29.42515 90.92244 17154 ft 242 kts 208°
2026-04-21 09:13 29.41018 90.91485 17099 ft 227 kts 210°
2026-04-21 09:13 29.39702 90.90538 16621 ft 225 kts 225°
2026-04-21 09:13 29.38637 90.89228 16089 ft 225 kts 239°
2026-04-21 09:13 29.37898 90.87680 15684 ft 216 kts 251°
2026-04-21 09:14 29.37517 90.86114 15621 ft 195 kts 264°
2026-04-21 09:14 29.37419 90.84585 15608 ft 193 kts 270°
2026-04-21 09:14 29.37331 90.83088 15376 ft 182 kts 267°
2026-04-21 09:14 29.37182 90.81677 15129 ft 176 kts 265°
2026-04-21 09:15 29.36977 90.80295 14916 ft 175 kts 263°
2026-04-21 09:15 29.36716 90.78941 14695 ft 173 kts 260°
2026-04-21 09:15 29.36387 90.77605 14472 ft 176 kts 251°
2026-04-21 09:15 29.35735 90.76413 14242 ft 180 kts 227°
2026-04-21 09:16 29.34737 90.75578 14057 ft 178 kts 209°
2026-04-21 09:16 29.33550 90.75214 13818 ft 180 kts 186°
2026-04-21 09:16 29.32284 90.75374 13604 ft 187 kts 168°
2026-04-21 09:16 29.31124 90.76106 13343 ft 195 kts 143°
2026-04-21 09:17 29.30288 90.77336 13272 ft 196 kts 114°
2026-04-21 09:17 29.29964 90.78805 12889 ft 188 kts 89°
2026-04-21 09:17 29.29986 90.80296 12555 ft 186 kts 86°
2026-04-21 09:17 29.30009 90.81774 12320 ft 184 kts 86°
2026-04-21 09:18 29.30042 90.83226 12192 ft 182 kts 84°
2026-04-21 09:18 29.30096 90.84668 12052 ft 180 kts 82°
2026-04-21 09:18 29.30114 90.86107 11967 ft 181 kts 88°
2026-04-21 09:18 29.30087 90.87538 11715 ft 177 kts 87°
2026-04-21 09:19 29.30108 90.88958 11495 ft 179 kts 83°
2026-04-21 09:19 29.30144 90.90255 11456 ft 140 kts 89°
2026-04-21 09:19 29.30150 90.91175 11456 ft 91 kts 88°
2026-04-21 09:19 29.30159 90.91703 11450 ft 44 kts 90°
2026-04-21 09:20 29.30144 90.91917 11448 ft 19 kts 109°
2026-04-21 09:20 29.30089 90.92056 11451 ft 19 kts 112°
2026-04-21 09:20 29.30031 90.92200 11445 ft 20 kts 113°
2026-04-21 09:20 29.30011 90.92361 11448 ft 21 kts 89°
2026-04-21 09:21 29.30014 90.92530 11450 ft 17 kts 88°
2026-04-21 09:21 29.30016 90.92624 11450 ft 12 kts 88°
2026-04-21 09:21 29.30016 90.92722 11450 ft 13 kts 90°
2026-04-21 09:21 29.30017 90.92827 11450 ft 14 kts 88°
2026-04-21 09:22 29.30020 90.92942 11449 ft 15 kts 89°
2026-04-21 09:22 29.30021 90.93069 11448 ft 17 kts 89°
2026-04-21 09:22 29.30022 90.93187 11442 ft 13 kts 99°
2026-04-21 09:22 29.29968 90.93263 11433 ft 14 kts 168°
2026-04-21 09:23 29.29871 90.93263 11438 ft 14 kts 180°
2026-04-21 09:23 29.29766 90.93265 11438 ft 16 kts 179°
2026-04-21 09:23 29.29685 90.93267 11442 ft 5 kts 178°
2026-04-21 09:23 29.29672 90.93229 11444 ft 8 kts 264°
2026-04-21 09:24 29.29670 90.93162 11447 ft 9 kts 269°
2026-04-21 09:24 29.29669 90.93087 11448 ft 10 kts 271°
2026-04-21 09:24 29.29669 90.93005 11447 ft 11 kts 269°
2026-04-21 09:24 29.29669 90.92913 11447 ft 12 kts 269°
2026-04-21 09:25 29.29667 90.92812 11447 ft 13 kts 269°
2026-04-21 09:25 29.29665 90.92704 11447 ft 14 kts 269°
2026-04-21 09:25 29.29663 90.92590 11437 ft 15 kts 268°
2026-04-21 09:25 29.29659 90.92470 11448 ft 15 kts 268°
2026-04-21 09:26 29.29659 90.92346 11451 ft 16 kts 274°
2026-04-21 09:26 29.29658 90.92218 11451 ft 16 kts 269°
2026-04-21 09:26 29.29656 90.92088 11452 ft 17 kts 270°
2026-04-21 09:26 29.29655 90.91954 11452 ft 17 kts 269°
2026-04-21 09:27 29.29651 90.91817 11445 ft 17 kts 268°
2026-04-21 09:27 29.29649 90.91675 11447 ft 18 kts 269°
2026-04-21 09:27 29.29647 90.91529 11459 ft 19 kts 270°
2026-04-21 09:27 29.29646 90.91377 11452 ft 19 kts 269°
2026-04-21 09:28 29.29644 90.91220 11456 ft 20 kts 269°
2026-04-21 09:28 29.29641 90.91057 11456 ft 21 kts 268°
2026-04-21 09:28 29.29638 90.90888 11456 ft 21 kts 269°
2026-04-21 09:28 29.29637 90.90716 11456 ft 22 kts 270°
2026-04-21 09:29 29.29633 90.90541 11456 ft 22 kts 268°
2026-04-21 09:29 29.29629 90.90394 11457 ft 18 kts 268°
2026-04-21 09:29 29.29629 90.90246 11458 ft 19 kts 270°
2026-04-21 09:29 29.29626 90.90097 11448 ft 16 kts 268°
2026-04-21 09:30 29.29618 90.90022 11443 ft 7 kts 238°
2026-04-21 09:30 29.29571 90.90007 11454 ft 8 kts 181°
2026-04-21 09:30 29.29525 90.89982 11449 ft 8 kts 256°
2026-04-21 09:30 29.29525 90.89916 11457 ft 9 kts 270°
2026-04-21 09:31 29.29523 90.89843 11458 ft 10 kts 268°
2026-04-21 09:31 29.29522 90.89763 11459 ft 10 kts 270°
2026-04-21 09:31 29.29522 90.89693 11459 ft 4 kts 269°
2026-04-21 09:31 29.29507 90.89671 11441 ft 4 kts 204°
2026-04-21 09:32 29.29474 90.89668 11449 ft 5 kts 181°
2026-04-21 09:32 29.29433 90.89667 11456 ft 7 kts 181°
2026-04-21 09:32 29.29384 90.89666 11456 ft 7 kts 181°
2026-04-21 09:32 29.29367 90.89666 11454 ft 1 kts 181°
2026-04-21 09:33 29.29366 90.89666 11454 ft 0 kts 181°